[[{"header":{"parameterUnit":"m.s-1","parameterCategory":2,"la1":30.2991,"la2":30.254,"lo1":-89.0895,"lo2":-89.0444,"dy":0.0017,"dx":0.0017,"nx":28,"ny":28,"refTime":"2024-08-03T03:00:00:Z","depth":"0","parameterNumber":2,"parameterNumberName":"U-component_of_CURRENTS"},"data":[0,0,0,0,0,0,0,0,0,0,0,0,0,0,0,0,0,0,0,0,0,0,0,0,0,0,0,0,0,0,0,0,0,0,0,0,0,0,0,0,0,0,0,0,0,0,0,0,0,0,0,0,0,0,0,0,0,0,0.1708,0.1708,0,0.1745,0.1746,0.1746,0.1744,0.1743,0.1743,0.1743,0.1763,0.1764,0.1765,0,0,0,0,0,0,0,0,0,0,0,0,0,0.162,0.1621,0.1708,0.1709,0.1709,0.1745,0.1746,0.1746,0.1744,0.1743,0.1743,0.1742,0.1763,0.1764,0.1765,0,0,0,0,0,0,0,0,0,0,0,0,0,0.1657,0.1622,0.1708,0.1713,0.1714,0.1745,0.1746,0.1746,0.1744,0.1743,0.1743,0.1742,0.1762,0.1764,0.1765,0.1787,0,0,0.177,0.177,0,0,0,0,0,0,0,0,0.1654,0.166,0.1712,0.1713,0.1714,0.174,0.1722,0.176,0.1744,0.1731,0.1743,0.1742,0.1755,0.1757,0.1764,0.1788,0.1789,0.177,0.1771,0.1771,0.1772,0,0,0,0,0,0,0,0.1652,0.1658,0.1721,0.1713,0.1714,0.1709,0.1713,0.1729,0.1745,0.1732,0.1733,0.1739,0.1755,0.1763,0.1765,0.1789,0.177,0.1771,0.1772,0.1772,0.193,0.1933,0,0,0,0,0,0,0.1652,0.1656,0.172,0.1723,0.1683,0.1711,0.1716,0.1732,0.1745,0.1747,0.174,0.1739,0.1761,0.1763,0.1765,0.1869,0.1771,0.1772,0.1773,0.1927,0.1931,0.1934,0,0,0,0,0,0,0.165,0.1658,0.1719,0.169,0.1698,0.1714,0.1731,0.1733,0.1738,0.1751,0.1752,0.1743,0.176,0.1763,0.1795,0.1866,0.1773,0.1774,0.1923,0.1928,0.1932,0.2027,0,0,0,0,0,0,0.1647,0.1657,0.1669,0.1691,0.17,0.175,0.1732,0.1734,0.1744,0.1743,0.1755,0.1756,0.176,0.1793,0.1796,0.1867,0.1776,0.1918,0.1925,0.1931,0.2019,0.2034,0.2047,0,0,0,0,0,0.1644,0.1674,0.1669,0.1677,0.1716,0.1752,0.1756,0.1763,0.1744,0.1761,0.1769,0.1755,0.1836,0.1796,0.1799,0.1872,0.1915,0.1923,0.193,0.2013,0.2031,0.2047,0,0,0,0,0,0,0.1646,0.1677,0.1672,0.171,0.1731,0.1752,0.1776,0.1764,0.1782,0.1782,0.1777,0.1781,0.1847,0.1841,0.1797,0.194,0.1883,0.1891,0.1945,0.1962,0.1975,0.2046,0.1777,0,0,0,0,0,0.165,0.168,0.1701,0.1732,0.1748,0.1755,0.1769,0.1771,0.1789,0.1795,0.18,0.1828,0.1883,0.1902,0.1938,0.1994,0.2097,0.2053,0.2066,0.2078,0.2141,0.2397,0.2441,0.1959,0.1959,0.1959,0,0,0.1658,0.1681,0.1696,0.1734,0.1754,0.1786,0.1763,0.1795,0.1825,0.1796,0.184,0.1868,0.1908,0.199,0.202,0.199,0.2256,0.2087,0.2097,0.2156,0.241,0.2458,0.25,0.1964,0.1963,0.1962,0,0,0.1704,0.1713,0.1758,0.1778,0.1812,0.1815,0.1822,0.1843,0.1862,0.1893,0.1914,0.2013,0.2012,0.2124,0.2163,0.2281,0.2322,0.2251,0.2379,0.2624,0.2668,0.2708,0.2846,0.2898,0.2258,0.2258,0.2258,0,0.171,0.1766,0.1775,0.1823,0.1843,0.1828,0.1871,0.1894,0.1918,0.1993,0.1916,0.2096,0.2114,0.2317,0.2348,0.2325,0.2414,0.2302,0.2649,0.269,0.2729,0.2863,0.2918,0.2264,0.2263,0.2263,0.2262,0,0.1791,0.1828,0.186,0.1907,0.1929,0.1965,0.1989,0.2028,0.2022,0.2082,0.2248,0.2293,0.2433,0.2438,0.2412,0.2701,0.2654,0.2637,0.2611,0.2785,0.2911,0.2968,0.2272,0.227,0.2268,0.2267,0,0,0.1827,0.19,0.1911,0.1947,0.1973,0.2008,0.2075,0.2183,0.2298,0.2331,0.2514,0.2625,0.2694,0.275,0.2768,0.2949,0.3262,0.2892,0.2902,0.3038,0.3737,0.3606,0.3653,0.3292,0.3303,0.3313,0.3694,0,0.1886,0.1979,0.1998,0.2075,0.2119,0.214,0.2222,0.2324,0.2399,0.2569,0.2708,0.2868,0.2797,0.2876,0.3065,0.3208,0.3423,0.3156,0.3544,0.3555,0.3429,0.3722,0.3632,0.3959,0.375,0.3759,0.3766,0,0.1961,0.2011,0.2092,0.2187,0.2216,0.2257,0.2416,0.2498,0.274,0.2821,0.3031,0.3115,0.3393,0.3289,0.3713,0.3528,0.3677,0.3772,0.3789,0.3694,0.3535,0.3764,0.407,0.3963,0.3853,0.3846,0.384,0,0.1985,0.2081,0.2144,0.2167,0.227,0.2336,0.2403,0.2602,0.2744,0.3016,0.3154,0.3454,0.3612,0.3866,0.4,0.3907,0.4426,0.4341,0.4385,0.4371,0.4395,0.4364,0.4669,0.475,0.4749,0.4748,0.4747,0,0.2034,0.2092,0.2163,0.22,0.2331,0.2383,0.2583,0.2695,0.2936,0.3155,0.3308,0.3506,0.3771,0.403,0.4156,0.4427,0.4589,0.4511,0.4528,0.4409,0.4377,0.4355,0.4264,0.4762,0.4759,0.4756,0.4754,0,0.2076,0.2095,0.2197,0.2307,0.2342,0.2449,0.265,0.2841,0.3007,0.3284,0.3379,0.3659,0.3952,0.4168,0.4572,0.463,0.4792,0.4949,0.4715,0.4697,0.4577,0.449,0.4682,0.4557,0.512,0.512,0.512,0,0.2127,0.2181,0.2287,0.237,0.242,0.2574,0.2721,0.2876,0.3049,0.3353,0.3496,0.3818,0.4004,0.4482,0.4702,0.4987,0.4828,0.5042,0.4891,0.4658,0.458,0.4343,0.4204,0.4949,0.4948,0.4946,0.4946,0,0.2294,0.2315,0.2414,0.2515,0.2636,0.2761,0.2924,0.3028,0.3223,0.3392,0.3588,0.3739,0.4171,0.4406,0.4743,0.4897,0.4803,0.5022,0.4945,0.4644,0.4265,0.4115,0.4505,0.4935,0.4936,0.4937,0.4938,0.4938,0.2488,0.2547,0.2637,0.2719,0.2822,0.2862,0.2916,0.3062,0.3196,0.3342,0.3544,0.3713,0.4148,0.4593,0.4683,0.4834,0.4755,0.4812,0.4781,0.46,0.4333,0.4619,0.4932,0.4933,0.4933,0.4934,0.4935,0,0.2695,0.2715,0.2844,0.2862,0.2906,0.2921,0.3009,0.3007,0.3033,0.3247,0.3355,0.3754,0.4057,0.4362,0.4727,0.4664,0.4462,0.4563,0.4287,0.4202,0.4676,0.4515,0.4553,0.4553,0.4553,0.4553,0.4554,0.4554,0.2836,0.2918,0.2883,0.2896,0.2897,0.2848,0.2828,0.2802,0.2876,0.2992,0.3175,0.3396,0.3893,0.444,0.4575,0.4498,0.4186,0.4049,0.3966,0.4357,0.4377,0.4396,0.4228,0.4205,0.4205,0.337,0.3364,0.336]},{"header":{"parameterUnit":"m.s-1","parameterCategory":2,"la1":30.2991,"la2":30.254,"lo1":-89.0895,"lo2":-89.0444,"dy":0.0017,"dx":0.0017,"nx":28,"ny":28,"refTime":"2024-08-03T03:00:00:Z","depth":"0","parameterNumber":3,"parameterNumberName":"V-component_of_CURRENTS"},"data":[0,0,0,0,0,0,0,0,0,0,0,0,0,0,0,0,0,0,0,0,0,0,0,0,0,0,0,0,0,0,0,0,0,0,0,0,0,0,0,0,0,0,0,0,0,0,0,0,0,0,0,0,0,0,0,0,0,0,-0.0117,-0.0117,0,-0.0068,-0.0067,-0.0067,-0.0016,-0.0015,-0.0014,-0.0013,0.0023,0.0023,0.0024,0,0,0,0,0,0,0,0,0,0,0,0,0,-0.0186,-0.0185,-0.0117,-0.0117,-0.0116,-0.0068,-0.0067,-0.0067,-0.0016,-0.0015,-0.0014,-0.0013,0.0023,0.0023,0.0024,0,0,0,0,0,0,0,0,0,0,0,0,0,-0.0149,-0.0184,-0.0117,-0.0084,-0.0081,-0.0068,-0.0067,-0.0066,-0.0016,-0.0015,-0.0014,-0.0013,0.0023,0.0023,0.0024,0.0003,0,0,0.0025,0.0025,0,0,0,0,0,0,0,0,-0.0151,-0.0147,-0.009,-0.0086,-0.0082,-0.0046,-0.0078,-0.0044,-0.0016,-0.0041,-0.0013,-0.0012,-0.0001,0.0001,0.0007,0.0005,0.0006,0.0025,0.0025,0.0025,0.0025,0,0,0,0,0,0,0,-0.0154,-0.0148,-0.0098,-0.0089,-0.0085,-0.0078,-0.0071,-0.0071,-0.003,-0.0039,-0.0035,-0.0029,0.0001,0.0006,0.0008,0.0007,0.0025,0.0025,0.0026,0.0026,0.0013,0.0013,0,0,0,0,0,0,-0.0158,-0.0151,-0.01,-0.0097,-0.0114,-0.0077,-0.007,-0.006,-0.0029,-0.0023,-0.003,-0.0026,0.0005,0.0007,0.0009,0.0058,0.0025,0.0026,0.0026,0.0014,0.0013,0.0012,0,0,0,0,0,0,-0.016,-0.0154,-0.0102,-0.0122,-0.0115,-0.0077,-0.0066,-0.0059,-0.0056,-0.0022,-0.0016,-0.0034,0.0006,0.0009,0.0004,0.0057,0.0026,0.0026,0.0014,0.0014,0.0013,0.0108,0,0,0,0,0,0,-0.0162,-0.0155,-0.0158,-0.0123,-0.0114,-0.0103,-0.0067,-0.0059,-0.0053,-0.0048,-0.0023,-0.0018,0.0007,0.0003,0.0004,0.0057,0.0027,0.0015,0.0014,0.0013,0.0106,0.0111,0.0115,0,0,0,0,0,-0.0165,-0.0166,-0.0158,-0.0152,-0.0116,-0.0103,-0.0099,-0.0069,-0.0055,-0.0061,-0.0043,-0.0019,-0.0002,0.0002,0.0004,0.0058,0.0016,0.0014,0.0013,0.0104,0.011,0.0115,0,0,0,0,0,0,-0.0192,-0.016,-0.015,-0.014,-0.013,-0.0095,-0.0093,-0.008,-0.0071,-0.0065,-0.0036,-0.003,-0.0012,-0.0017,-0.0013,0.0043,0.0014,0.0013,0.0082,0.0088,0.0092,0.0204,0.0027,0,0,0,0,0,-0.0202,-0.0197,-0.0169,-0.0165,-0.0159,-0.0133,-0.0127,-0.0109,-0.0091,-0.0085,-0.007,-0.0051,-0.0018,0.0001,0.0005,0.0028,0.008,0.006,0.0065,0.007,0.0156,0.027,0.0296,0.0008,0.0008,0.0008,0,0,-0.0209,-0.0194,-0.0189,-0.0172,-0.0157,-0.0147,-0.0126,-0.0118,-0.0087,-0.0085,-0.0057,-0.0048,-0.0019,0.0021,0.0031,0.0031,0.0157,0.0068,0.0073,0.0158,0.0272,0.0301,0.0327,0.0007,0.0008,0.0008,0,0,-0.022,-0.021,-0.0208,-0.0204,-0.0188,-0.0168,-0.0171,-0.0148,-0.0112,-0.011,-0.0068,-0.0004,-0.0034,0.0076,0.0111,0.0139,0.0164,0.0091,0.0236,0.0343,0.0371,0.0396,0.0429,0.0457,0.0112,0.0113,0.0113,0,-0.0228,-0.0216,-0.0209,-0.0209,-0.0182,-0.0179,-0.0156,-0.0133,-0.0114,-0.0012,-0.0104,0.0031,0.003,0.0222,0.0225,0.017,0.0188,0.0221,0.036,0.0387,0.0411,0.0439,0.0469,0.0117,0.0117,0.0116,0.0116,0,-0.0235,-0.0228,-0.0227,-0.0212,-0.0192,-0.0179,-0.0135,-0.0085,-0.0067,0.0006,0.0149,0.0151,0.0284,0.0256,0.0245,0.0444,0.0379,0.0343,0.037,0.0448,0.0468,0.0498,0.0123,0.0122,0.012,0.0119,0,0,-0.0223,-0.0226,-0.0224,-0.0174,-0.018,-0.0128,-0.0066,0.0078,0.0252,0.0218,0.0442,0.0471,0.0536,0.0583,0.0591,0.0672,0.0806,0.058,0.0583,0.0655,0.0987,0.0861,0.088,0.0781,0.0788,0.0794,0.0907,0,-0.0216,-0.019,-0.0196,-0.0127,-0.0085,-0.0027,0.0081,0.0218,0.0325,0.0526,0.0611,0.077,0.064,0.0733,0.0795,0.0824,0.0899,0.0777,0.0867,0.0871,0.0788,0.0918,0.0842,0.0933,0.0936,0.0941,0.0945,0,-0.0209,-0.0172,-0.0122,0.0033,0.007,0.0118,0.0406,0.0503,0.0779,0.0883,0.1057,0.1108,0.1275,0.1109,0.1233,0.1145,0.11,0.1072,0.1075,0.0978,0.0806,0.0864,0.0986,0.0671,0.099,0.0986,0.0983,0,-0.0144,-0.0091,-0.0022,-0.0,0.014,0.026,0.0377,0.0645,0.0863,0.1144,0.1325,0.1474,0.159,0.1558,0.1458,0.137,0.1541,0.1418,0.127,0.1255,0.1233,0.1205,0.1122,0.1545,0.1544,0.1544,0.1544,0,-0.0108,-0.0024,0.0029,0.0079,0.0313,0.0366,0.0692,0.0859,0.1161,0.1485,0.153,0.1774,0.1709,0.177,0.1612,0.1536,0.1668,0.137,0.1325,0.1243,0.1217,0.0971,0.0815,0.1548,0.1547,0.1546,0.1546,0,0.0008,-0.0029,0.0126,0.0276,0.0338,0.0541,0.0866,0.1156,0.1357,0.1763,0.1861,0.2068,0.213,0.2013,0.1997,0.1772,0.1508,0.1619,0.1481,0.1418,0.0924,0.0776,0.0794,0.0604,0.1493,0.1491,0.149,0,0.01,0.0159,0.0311,0.0442,0.0522,0.0791,0.1031,0.1259,0.1554,0.1952,0.2174,0.2337,0.2502,0.2372,0.2037,0.1782,0.1518,0.1506,0.1345,0.0956,0.0761,0.0685,0.0516,0.1318,0.1315,0.1313,0.1311,0,0.0392,0.0406,0.055,0.0737,0.0946,0.1215,0.1519,0.1738,0.2046,0.2316,0.2647,0.2777,0.267,0.2416,0.2032,0.1796,0.1237,0.1447,0.1142,0.0732,0.0565,0.0336,0.1109,0.1291,0.1293,0.1294,0.1295,0.1296,0.0705,0.084,0.0952,0.1147,0.1355,0.1597,0.1826,0.211,0.2459,0.2827,0.2931,0.3125,0.2738,0.2211,0.1809,0.1019,0.1099,0.0773,0.066,0.0645,0.0378,0.106,0.1113,0.1114,0.1115,0.1115,0.1116,0,0.1102,0.1163,0.1372,0.1553,0.177,0.1795,0.2154,0.2354,0.2671,0.2987,0.3208,0.3145,0.2522,0.1894,0.0884,0.0329,0.0118,0.005,-0.0076,-0.0192,0.0512,0.0408,0.0194,0.0194,0.0194,0.0195,0.0195,0.0195,0.1342,0.1538,0.1542,0.1864,0.1987,0.226,0.2426,0.266,0.2898,0.32,0.3341,0.3464,0.3041,0.1251,-0.0075,-0.0398,-0.0799,-0.0793,-0.1004,-0.0574,-0.0516,-0.0461,-0.0598,-0.102,-0.1021,-0.1694,-0.17,-0.1706]}],[{"header":{"parameterUnit":"m.s-1","parameterCategory":2,"la1":30.2991,"la2":30.254,"lo1":-89.0895,"lo2":-89.0444,"dy":0.0017,"dx":0.0017,"nx":28,"ny":28,"refTime":"2024-08-03T03:00:00:Z","depth":"2","parameterNumber":2,"parameterNumberName":"U-component_of_CURRENTS"},"data":[0,0,0,0,0,0,0,0,0,0,0,0,0,0,0,0,0,0,0,0,0,0,0,0,0,0,0,0,0,0,0,0,0,0,0,0,0,0,0,0,0,0,0,0,0,0,0,0,0,0,0,0,0,0,0,0,0,0,0.1539,0.154,0,0.1568,0.1568,0.1569,0.1544,0.1543,0.1542,0.1542,0.1508,0.1508,0.1508,0,0,0,0,0,0,0,0,0,0,0,0,0,0.1488,0.1488,0.1539,0.154,0.154,0.1568,0.1568,0.1569,0.1544,0.1543,0.1542,0.1541,0.1508,0.1508,0.1508,0,0,0,0,0,0,0,0,0,0,0,0,0,0.151,0.1489,0.1539,0.1534,0.1534,0.1568,0.1568,0.1569,0.1544,0.1543,0.1542,0.1541,0.1508,0.1508,0.1508,0.1529,0,0,0.1507,0.1507,0,0,0,0,0,0,0,0,0.1509,0.1512,0.1534,0.1534,0.1534,0.1554,0.1538,0.1553,0.1545,0.1537,0.1542,0.154,0.152,0.1519,0.1524,0.1528,0.1526,0.1507,0.1507,0.1507,0.1507,0,0,0,0,0,0,0,0.1507,0.151,0.1548,0.1535,0.1535,0.1539,0.154,0.1541,0.1532,0.1538,0.1537,0.1545,0.1519,0.1524,0.1523,0.1526,0.1507,0.1507,0.1507,0.1506,0.1578,0.158,0,0,0,0,0,0,0.1509,0.1509,0.1547,0.1549,0.1522,0.1541,0.1542,0.1546,0.1533,0.1531,0.1546,0.1544,0.1525,0.1523,0.1521,0.1573,0.1507,0.1506,0.1506,0.1576,0.1579,0.1581,0,0,0,0,0,0,0.1508,0.1512,0.1546,0.1532,0.1537,0.1543,0.1548,0.1548,0.1559,0.154,0.1536,0.1558,0.1524,0.1522,0.1542,0.157,0.1506,0.1506,0.1574,0.1577,0.158,0.1658,0,0,0,0,0,0,0.1506,0.1512,0.1518,0.1532,0.1538,0.1577,0.1549,0.1549,0.1566,0.1564,0.1549,0.1545,0.1523,0.1542,0.1541,0.1568,0.1506,0.1571,0.1575,0.1579,0.1653,0.1663,0.1672,0,0,0,0,0,0.1504,0.1521,0.1518,0.1523,0.1546,0.1578,0.1582,0.158,0.1568,0.1583,0.1579,0.1545,0.1566,0.1544,0.1542,0.157,0.1569,0.1574,0.1579,0.1648,0.1661,0.1672,0,0,0,0,0,0,0.1502,0.1521,0.1518,0.1539,0.1561,0.1575,0.1593,0.1592,0.1601,0.1596,0.1572,0.1569,0.1595,0.158,0.1556,0.1605,0.1562,0.1567,0.1616,0.1628,0.1638,0.1636,0.1506,0,0,0,0,0,0.1507,0.1524,0.1542,0.1562,0.1576,0.1587,0.16,0.1601,0.1611,0.1614,0.1608,0.1606,0.1615,0.1618,0.1619,0.1648,0.1652,0.1666,0.1676,0.1685,0.1684,0.1755,0.1772,0.1596,0.1596,0.1596,0,0,0.1511,0.1526,0.1534,0.1564,0.158,0.1611,0.1592,0.1621,0.1644,0.161,0.1641,0.1639,0.1631,0.1662,0.1673,0.1651,0.1734,0.1691,0.1697,0.1692,0.1762,0.1779,0.1794,0.1599,0.1599,0.1598,0,0,0.1541,0.1545,0.1574,0.1595,0.1627,0.1636,0.1649,0.1672,0.1679,0.1712,0.1696,0.1713,0.1726,0.1728,0.173,0.1797,0.1783,0.1804,0.1851,0.1921,0.1936,0.1949,0.196,0.1974,0.1809,0.1809,0.181,0,0.1545,0.1582,0.159,0.1627,0.1647,0.1651,0.1688,0.1704,0.173,0.174,0.1729,0.1785,0.1755,0.1814,0.182,0.1817,0.1845,0.1804,0.1934,0.1947,0.196,0.1968,0.1982,0.1814,0.1813,0.1813,0.1812,0,0.1601,0.1628,0.1652,0.1694,0.1717,0.1751,0.1772,0.1796,0.1802,0.181,0.187,0.1875,0.1908,0.1904,0.1869,0.1951,0.1937,0.1938,0.1903,0.1982,0.1985,0.1999,0.182,0.1818,0.1817,0.1816,0,0,0.1608,0.1675,0.1683,0.1709,0.1752,0.1777,0.182,0.1855,0.1886,0.1924,0.1986,0.1996,0.201,0.2015,0.2014,0.2052,0.2125,0.2029,0.2031,0.2036,0.226,0.2279,0.2294,0.2172,0.2175,0.2178,0.2222,0,0.1649,0.172,0.1744,0.1807,0.1841,0.1856,0.1897,0.1924,0.1948,0.2006,0.2038,0.2086,0.2057,0.2085,0.2133,0.2143,0.2168,0.211,0.2185,0.2186,0.2192,0.2314,0.2139,0.2169,0.2235,0.2237,0.2238,0,0.1695,0.1735,0.1802,0.1857,0.1875,0.1913,0.1969,0.2009,0.207,0.2095,0.2174,0.2192,0.2271,0.2228,0.2328,0.2309,0.2277,0.2271,0.2274,0.2273,0.2232,0.2105,0.219,0.226,0.2258,0.2257,0.2255,0,0.1694,0.1772,0.1822,0.1843,0.191,0.1943,0.1981,0.2032,0.2077,0.2165,0.2215,0.232,0.2397,0.243,0.2421,0.2386,0.2515,0.2467,0.2448,0.2446,0.2299,0.2281,0.2505,0.2505,0.2505,0.2505,0.2505,0,0.1723,0.1761,0.1829,0.1857,0.1921,0.196,0.2031,0.2078,0.2167,0.2235,0.2281,0.2385,0.2455,0.2528,0.249,0.2551,0.2588,0.2481,0.2487,0.232,0.2305,0.238,0.2365,0.2507,0.2506,0.2506,0.2506,0,0.1719,0.1763,0.1822,0.1897,0.1926,0.1973,0.2068,0.2111,0.2198,0.2307,0.2343,0.2475,0.2602,0.2639,0.2695,0.2654,0.2673,0.2649,0.2428,0.241,0.2519,0.2507,0.2653,0.2655,0.2656,0.2657,0.2658,0,0.1731,0.176,0.1844,0.1879,0.1919,0.1991,0.2034,0.2125,0.2176,0.236,0.2416,0.2578,0.2672,0.2801,0.2781,0.2772,0.2751,0.2556,0.2456,0.2558,0.2548,0.2534,0.252,0.2262,0.226,0.2258,0.2256,0,0.1745,0.1769,0.1811,0.1868,0.1922,0.1984,0.2059,0.2109,0.2221,0.234,0.2518,0.2613,0.2755,0.2735,0.2728,0.2669,0.2562,0.252,0.2724,0.2276,0.2201,0.2187,0.2184,0.2239,0.2241,0.2242,0.2243,0.2244,0.1746,0.176,0.1795,0.1841,0.1902,0.1947,0.1979,0.2068,0.2177,0.2269,0.2444,0.2508,0.257,0.2517,0.2461,0.2411,0.2551,0.2385,0.2385,0.2389,0.236,0.2295,0.2341,0.2343,0.2345,0.2347,0.2348,0,0.1704,0.1714,0.1761,0.1796,0.1819,0.1886,0.1961,0.197,0.2069,0.2156,0.2259,0.2117,0.2133,0.2197,0.2122,0.212,0.2018,0.2016,0.1872,0.1895,0.1913,0.1853,0.1703,0.17,0.1698,0.1695,0,0,0.1677,0.1661,0.166,0.1672,0.1724,0.1743,0.1777,0.1824,0.1879,0.1854,0.1854,0.1945,0.2132,0.1867,0.1869,0.1794,0.1803,0.1712,0.2243,0.2098,0.2112,0.2159,0.2099,0,0,0,0,0]},{"header":{"parameterUnit":"m.s-1","parameterCategory":2,"la1":30.2991,"la2":30.254,"lo1":-89.0895,"lo2":-89.0444,"dy":0.0017,"dx":0.0017,"nx":28,"ny":28,"refTime":"2024-08-03T03:00:00:Z","depth":"2","parameterNumber":3,"parameterNumberName":"V-component_of_CURRENTS"},"data":[0,0,0,0,0,0,0,0,0,0,0,0,0,0,0,0,0,0,0,0,0,0,0,0,0,0,0,0,0,0,0,0,0,0,0,0,0,0,0,0,0,0,0,0,0,0,0,0,0,0,0,0,0,0,0,0,0,0,-0.0493,-0.0493,0,-0.053,-0.0531,-0.0531,-0.054,-0.0539,-0.0538,-0.0538,-0.0629,-0.0632,-0.0635,0,0,0,0,0,0,0,0,0,0,0,0,0,-0.0459,-0.046,-0.0493,-0.0493,-0.0493,-0.053,-0.0531,-0.0532,-0.054,-0.0539,-0.0538,-0.0538,-0.0628,-0.0632,-0.0635,0,0,0,0,0,0,0,0,0,0,0,0,0,-0.0486,-0.046,-0.0493,-0.0499,-0.05,-0.053,-0.0531,-0.0532,-0.054,-0.0539,-0.0538,-0.0537,-0.0627,-0.0631,-0.0636,-0.0679,0,0,-0.0649,-0.0651,0,0,0,0,0,0,0,0,-0.0484,-0.0487,-0.0498,-0.0499,-0.05,-0.0527,-0.0552,-0.0583,-0.054,-0.0528,-0.0538,-0.0537,-0.0598,-0.0605,-0.0618,-0.0684,-0.0687,-0.0649,-0.0652,-0.0654,-0.0655,0,0,0,0,0,0,0,-0.0482,-0.0486,-0.0511,-0.0498,-0.0499,-0.0511,-0.0514,-0.0558,-0.0571,-0.0529,-0.0529,-0.0528,-0.0599,-0.0613,-0.062,-0.0689,-0.0649,-0.0653,-0.0656,-0.0658,-0.0754,-0.0754,0,0,0,0,0,0,-0.0471,-0.0484,-0.0509,-0.0511,-0.0486,-0.0512,-0.0515,-0.0521,-0.0569,-0.0574,-0.0529,-0.0529,-0.0606,-0.0615,-0.0623,-0.0651,-0.0654,-0.0658,-0.0661,-0.0754,-0.0754,-0.0754,0,0,0,0,0,0,-0.047,-0.0473,-0.0508,-0.0496,-0.05,-0.0512,-0.052,-0.0522,-0.0524,-0.0568,-0.0575,-0.0526,-0.0606,-0.0617,-0.0653,-0.0655,-0.066,-0.0664,-0.0754,-0.0754,-0.0754,-0.0724,0,0,0,0,0,0,-0.0469,-0.0473,-0.048,-0.0495,-0.05,-0.0511,-0.052,-0.0524,-0.0524,-0.0524,-0.0568,-0.0576,-0.0606,-0.0646,-0.0657,-0.0662,-0.0667,-0.0754,-0.0754,-0.0754,-0.0725,-0.0723,-0.0721,0,0,0,0,0,-0.0468,-0.0466,-0.0481,-0.0484,-0.0508,-0.0511,-0.0515,-0.0523,-0.0525,-0.0523,-0.0555,-0.0574,-0.0652,-0.065,-0.0663,-0.0669,-0.0754,-0.0754,-0.0754,-0.0726,-0.0723,-0.0721,0,0,0,0,0,0,-0.0454,-0.0468,-0.0483,-0.0487,-0.0496,-0.051,-0.0507,-0.0517,-0.0542,-0.0541,-0.0583,-0.0594,-0.0624,-0.0651,-0.0647,-0.0693,-0.0703,-0.0705,-0.0678,-0.0676,-0.0673,-0.0667,-0.0671,0,0,0,0,0,-0.0457,-0.0463,-0.0476,-0.0482,-0.0478,-0.0495,-0.0499,-0.0505,-0.0524,-0.0533,-0.0566,-0.0601,-0.0636,-0.0657,-0.069,-0.0726,-0.0754,-0.0734,-0.0732,-0.073,-0.0732,-0.0746,-0.0745,-0.0753,-0.0753,-0.0753,0,0,-0.0452,-0.0463,-0.0466,-0.048,-0.0485,-0.0482,-0.0495,-0.049,-0.0501,-0.0542,-0.0566,-0.0596,-0.0643,-0.0675,-0.0691,-0.0698,-0.075,-0.073,-0.0728,-0.0731,-0.0746,-0.0745,-0.0745,-0.0753,-0.0753,-0.0753,0,0,-0.0432,-0.0452,-0.0442,-0.0448,-0.0452,-0.0467,-0.0461,-0.0473,-0.0488,-0.0516,-0.0547,-0.0577,-0.0631,-0.0666,-0.0691,-0.07,-0.0735,-0.0705,-0.0698,-0.0711,-0.071,-0.071,-0.0778,-0.0783,-0.0707,-0.0707,-0.0707,0,-0.0425,-0.0425,-0.0439,-0.0428,-0.0435,-0.0454,-0.0445,-0.0465,-0.0494,-0.0519,-0.0514,-0.0575,-0.0627,-0.0661,-0.0678,-0.0696,-0.0723,-0.0704,-0.0708,-0.0708,-0.0708,-0.0777,-0.0784,-0.0706,-0.0706,-0.0706,-0.0706,0,-0.0393,-0.0399,-0.0387,-0.0392,-0.04,-0.0395,-0.0419,-0.0436,-0.0457,-0.0489,-0.0514,-0.0554,-0.0587,-0.0612,-0.0663,-0.0689,-0.0716,-0.0699,-0.0712,-0.0705,-0.0779,-0.0787,-0.0704,-0.0704,-0.0705,-0.0705,0,0,-0.0367,-0.0366,-0.0365,-0.0368,-0.0384,-0.0385,-0.0406,-0.0441,-0.0459,-0.0475,-0.0479,-0.0553,-0.0559,-0.0587,-0.062,-0.0654,-0.0717,-0.0688,-0.0689,-0.0754,-0.0784,-0.0695,-0.0696,-0.069,-0.069,-0.069,-0.0847,0,-0.0341,-0.032,-0.0335,-0.033,-0.032,-0.0357,-0.0376,-0.0415,-0.0452,-0.0464,-0.0489,-0.0516,-0.0549,-0.0562,-0.0587,-0.0662,-0.073,-0.0679,-0.0782,-0.0787,-0.0705,-0.0698,-0.0665,-0.079,-0.0855,-0.0856,-0.0857,0,-0.0307,-0.0303,-0.0289,-0.0307,-0.0305,-0.0312,-0.0356,-0.0375,-0.0417,-0.0435,-0.0436,-0.0465,-0.0502,-0.0523,-0.0622,-0.058,-0.0701,-0.0768,-0.0774,-0.0702,-0.0709,-0.0801,-0.0802,-0.0871,-0.087,-0.0869,-0.0868,0,-0.0285,-0.0277,-0.0272,-0.0276,-0.0292,-0.0304,-0.0321,-0.0373,-0.0382,-0.0415,-0.0406,-0.0434,-0.0434,-0.052,-0.065,-0.065,-0.076,-0.0772,-0.082,-0.0818,-0.0816,-0.081,-0.0892,-0.0892,-0.0891,-0.0891,-0.0891,0,-0.0258,-0.0258,-0.0259,-0.0257,-0.0251,-0.0277,-0.0283,-0.0312,-0.0317,-0.0296,-0.0371,-0.0327,-0.0435,-0.05,-0.0627,-0.071,-0.0739,-0.0822,-0.0834,-0.0806,-0.0798,-0.0877,-0.0873,-0.0897,-0.0896,-0.0894,-0.0893,0,-0.0242,-0.0241,-0.0232,-0.0239,-0.0237,-0.0235,-0.0231,-0.023,-0.0254,-0.0208,-0.0211,-0.0262,-0.0315,-0.0444,-0.0607,-0.0677,-0.0788,-0.085,-0.0828,-0.0831,-0.0866,-0.0859,-0.0904,-0.0902,-0.09,-0.0898,-0.0897,0,-0.0244,-0.0235,-0.0214,-0.0198,-0.02,-0.0191,-0.0176,-0.0187,-0.0166,-0.014,-0.0094,-0.0161,-0.0119,-0.0297,-0.0485,-0.067,-0.0752,-0.0803,-0.0781,-0.085,-0.0859,-0.0855,-0.0851,-0.0818,-0.0816,-0.0814,-0.0813,0,-0.0256,-0.0241,-0.0224,-0.0176,-0.0149,-0.0109,-0.0081,-0.0026,-0.0007,0.0072,0.0181,0.0216,0.0036,-0.0086,-0.0375,-0.0512,-0.0738,-0.0771,-0.0854,-0.0771,-0.0767,-0.0775,-0.0775,-0.0799,-0.0801,-0.0802,-0.0802,-0.0803,-0.0274,-0.0252,-0.0215,-0.016,-0.0112,-0.0017,0.007,0.0158,0.0292,0.0458,0.0429,0.0528,0.0247,-0.0013,-0.0279,-0.0589,-0.0605,-0.0724,-0.0731,-0.0739,-0.0652,-0.0638,-0.0637,-0.0637,-0.0638,-0.0638,-0.0638,0,-0.0299,-0.0256,-0.0208,-0.0116,-0.0019,-0.0002,0.0141,0.029,0.0545,0.0667,0.0813,0.0645,0.0453,0.0129,-0.0297,-0.0547,-0.0616,-0.0631,-0.0682,-0.0693,-0.0703,-0.0616,-0.0592,-0.0593,-0.0593,-0.0593,0,0,-0.0319,-0.0263,-0.0211,-0.0048,0.0038,0.0212,0.0339,0.0596,0.0747,0.0975,0.1033,0.1002,0.0587,0.0297,-0.0087,-0.0331,-0.0446,-0.0377,-0.0389,-0.0415,-0.0421,-0.0735,-0.0608,0,0,0,0,0]}],[{"header":{"parameterUnit":"m.s-1","parameterCategory":2,"la1":30.2991,"la2":30.254,"lo1":-89.0895,"lo2":-89.0444,"dy":0.0017,"dx":0.0017,"nx":28,"ny":28,"refTime":"2024-08-03T03:00:00:Z","depth":"4","parameterNumber":2,"parameterNumberName":"U-component_of_CURRENTS"},"data":[0,0,0,0,0,0,0,0,0,0,0,0,0,0,0,0,0,0,0,0,0,0,0,0,0,0,0,0,0,0,0,0,0,0,0,0,0,0,0,0,0,0,0,0,0,0,0,0,0,0,0,0,0,0,0,0,0,0,0.076,0.0761,0,0.0802,0.0802,0.0802,0.0847,0.0848,0.0849,0.0849,0.0945,0.0947,0.0949,0,0,0,0,0,0,0,0,0,0,0,0,0,0.0708,0.0708,0.076,0.0761,0.0762,0.0802,0.0802,0.0802,0.0847,0.0848,0.0849,0.085,0.0945,0.0947,0.0949,0,0,0,0,0,0,0,0,0,0,0,0,0,0.0736,0.0709,0.076,0.079,0.0794,0.0802,0.0802,0.0803,0.0847,0.0848,0.0849,0.085,0.0944,0.0946,0.0949,0.094,0,0,0.0957,0.0958,0,0,0,0,0,0,0,0,0.0734,0.0738,0.0785,0.0788,0.0792,0.0823,0.0819,0.0852,0.0846,0.0824,0.085,0.0851,0.091,0.0915,0.0916,0.0944,0.0949,0.0957,0.0959,0.096,0.0961,0,0,0,0,0,0,0,0.0732,0.0736,0.0774,0.0786,0.079,0.0798,0.0803,0.0825,0.0858,0.0826,0.083,0.0838,0.0912,0.0913,0.0919,0.095,0.0957,0.096,0.0961,0.0962,0.1103,0.1105,0,0,0,0,0,0,0.0731,0.0734,0.0773,0.0776,0.0768,0.0798,0.0804,0.081,0.0857,0.0866,0.0837,0.084,0.0908,0.0916,0.0923,0.1008,0.096,0.0962,0.0964,0.1101,0.1103,0.1106,0,0,0,0,0,0,0.073,0.0734,0.0772,0.0758,0.0764,0.0798,0.0804,0.081,0.0847,0.0865,0.0875,0.0872,0.091,0.0919,0.0977,0.1009,0.0964,0.0966,0.1098,0.1102,0.1105,0.1119,0,0,0,0,0,0,0.0728,0.0733,0.0742,0.0758,0.0764,0.08,0.0803,0.081,0.0848,0.0854,0.0898,0.0906,0.0911,0.0973,0.098,0.1012,0.0968,0.1096,0.11,0.1104,0.1116,0.1123,0.1128,0,0,0,0,0,0.0726,0.0723,0.0742,0.0748,0.0774,0.0801,0.0806,0.0832,0.0849,0.0869,0.0905,0.0906,0.1004,0.0976,0.0984,0.1017,0.1094,0.1099,0.1103,0.1114,0.1122,0.1128,0,0,0,0,0,0,0.0705,0.0728,0.0749,0.0756,0.0792,0.081,0.082,0.085,0.0891,0.0898,0.0926,0.0936,0.0995,0.1012,0.0982,0.1074,0.1052,0.1059,0.1058,0.1066,0.1071,0.1096,0.097,0,0,0,0,0,0.0705,0.0721,0.0747,0.0765,0.0771,0.0805,0.0822,0.0845,0.0879,0.0899,0.0941,0.0982,0.1013,0.1046,0.1071,0.1122,0.1129,0.1154,0.116,0.1165,0.1193,0.1221,0.1231,0.1122,0.1122,0.1122,0,0,0.0708,0.0724,0.0735,0.0765,0.0783,0.0806,0.0819,0.0846,0.089,0.0902,0.0977,0.0998,0.103,0.1081,0.1112,0.1107,0.1197,0.1171,0.1175,0.1201,0.1227,0.1237,0.1247,0.1125,0.1124,0.1124,0,0,0.0714,0.0727,0.0739,0.0763,0.0797,0.0817,0.0836,0.0877,0.0916,0.098,0.0999,0.1046,0.111,0.1136,0.1156,0.1216,0.1219,0.1237,0.1298,0.1324,0.1332,0.134,0.134,0.1348,0.1251,0.1251,0.1252,0,0.0719,0.0735,0.0751,0.0767,0.0791,0.0829,0.0854,0.0893,0.0964,0.1004,0.1012,0.1114,0.1132,0.1198,0.1229,0.1227,0.1245,0.1258,0.1329,0.1337,0.1345,0.1343,0.1351,0.1253,0.1253,0.1253,0.1252,0,0.0729,0.075,0.0754,0.0793,0.0825,0.0847,0.0898,0.0953,0.1005,0.1049,0.1136,0.1165,0.1235,0.1245,0.1261,0.134,0.1332,0.1317,0.1301,0.1356,0.1351,0.1359,0.1255,0.1254,0.1254,0.1253,0,0,0.0717,0.0755,0.076,0.0789,0.0838,0.0866,0.0935,0.1008,0.1069,0.1137,0.122,0.1279,0.1312,0.1341,0.1363,0.1401,0.1453,0.1408,0.1408,0.1392,0.1511,0.1454,0.1457,0.1459,0.1461,0.1463,0.1475,0,0.0726,0.0753,0.078,0.0836,0.0851,0.0911,0.0975,0.1051,0.1124,0.1212,0.126,0.134,0.1344,0.1392,0.1429,0.1451,0.1483,0.1452,0.1476,0.1476,0.1406,0.1467,0.147,0.1481,0.1483,0.1484,0.1485,0,0.0718,0.0744,0.078,0.0858,0.0872,0.0924,0.1035,0.1107,0.122,0.1279,0.1366,0.1412,0.1497,0.1484,0.155,0.1539,0.1548,0.1549,0.1548,0.1505,0.1437,0.1424,0.15,0.1499,0.1498,0.1497,0.1496,0,0.0687,0.0747,0.0781,0.0803,0.0888,0.0944,0.1018,0.113,0.1211,0.1348,0.1412,0.1495,0.1558,0.1586,0.1618,0.1599,0.1672,0.1621,0.1569,0.1563,0.1598,0.159,0.1673,0.1672,0.1672,0.1672,0.1672,0,0.0665,0.0697,0.0775,0.0792,0.0866,0.0944,0.1052,0.1136,0.1267,0.1353,0.1462,0.1532,0.1599,0.1649,0.1648,0.1646,0.1691,0.1603,0.1578,0.1601,0.1594,0.1602,0.1594,0.1673,0.1673,0.1673,0.1673,0,0.0607,0.0657,0.0705,0.0804,0.0846,0.0909,0.1073,0.1139,0.1283,0.1401,0.1456,0.1585,0.1652,0.1694,0.1734,0.168,0.1678,0.1666,0.1699,0.1671,0.1534,0.1526,0.1584,0.1582,0.1581,0.158,0.1579,0,0.0572,0.0579,0.0693,0.0732,0.0783,0.0896,0.0959,0.1129,0.1204,0.1413,0.1445,0.1585,0.1651,0.1653,0.1702,0.1695,0.1681,0.1655,0.1595,0.1563,0.1533,0.1527,0.1522,0.1577,0.1577,0.1576,0.1576,0,0.0502,0.0545,0.0591,0.0659,0.0737,0.0823,0.094,0.0997,0.1182,0.1319,0.1423,0.1493,0.157,0.1602,0.1638,0.1622,0.1654,0.164,0.1641,0.1585,0.1555,0.1525,0.1521,0.1571,0.1572,0.1573,0.1573,0,0.0451,0.0463,0.0524,0.058,0.0671,0.0727,0.0811,0.0913,0.1026,0.1256,0.1279,0.1429,0.1545,0.1567,0.1587,0.1592,0.155,0.1476,0.1484,0.149,0.146,0.1408,0.138,0,0,0,0,0,0.0395,0.0395,0.0433,0.051,0.0591,0.0648,0.0775,0.086,0.1043,0.108,0.1192,0.1267,0.1355,0.1428,0.1411,0.1525,0.1536,0.1497,0.1447,0.1546,0.1551,0.1528,0,0,0,0,0,0,0.0356,0.0392,0.0402,0.0437,0.0469,0.0558,0.0638,0.0753,0.0799,0.0982,0.1035,0.118,0.1272,0.1345,0.1381,0.1403,0.1344,0.1594,0.1591,0.1543,0.1548,0.1552,0.153,0,0,0,0,0]},{"header":{"parameterUnit":"m.s-1","parameterCategory":2,"la1":30.2991,"la2":30.254,"lo1":-89.0895,"lo2":-89.0444,"dy":0.0017,"dx":0.0017,"nx":28,"ny":28,"refTime":"2024-08-03T03:00:00:Z","depth":"4","parameterNumber":3,"parameterNumberName":"V-component_of_CURRENTS"},"data":[0,0,0,0,0,0,0,0,0,0,0,0,0,0,0,0,0,0,0,0,0,0,0,0,0,0,0,0,0,0,0,0,0,0,0,0,0,0,0,0,0,0,0,0,0,0,0,0,0,0,0,0,0,0,0,0,0,0,0.0086,0.0086,0,0.0061,0.0061,0.006,-0.0006,-0.0007,-0.0008,-0.001,-0.0096,-0.0098,-0.0099,0,0,0,0,0,0,0,0,0,0,0,0,0,0.0054,0.0055,0.0086,0.0086,0.0086,0.0062,0.0061,0.006,-0.0006,-0.0007,-0.0009,-0.001,-0.0096,-0.0097,-0.0099,0,0,0,0,0,0,0,0,0,0,0,0,0,0.005,0.0055,0.0086,0.0052,0.0049,0.0062,0.0061,0.006,-0.0006,-0.0007,-0.0009,-0.0011,-0.0096,-0.0097,-0.0099,-0.0075,0,0,-0.0105,-0.0105,0,0,0,0,0,0,0,0,0.005,0.0051,0.0057,0.0055,0.0051,0.0031,0.0018,0.0013,-0.0005,0.0012,-0.001,-0.0012,-0.0056,-0.0061,-0.0065,-0.0079,-0.0083,-0.0105,-0.0106,-0.0107,-0.0107,0,0,0,0,0,0,0,0.005,0.0051,0.0074,0.0057,0.0054,0.0031,0.0028,0.0016,-0.0015,0.0011,0.0006,0.0009,-0.0059,-0.0063,-0.0068,-0.0084,-0.0105,-0.0106,-0.0108,-0.0108,-0.0127,-0.0126,0,0,0,0,0,0,0.0063,0.0052,0.0075,0.0073,0.0049,0.0033,0.003,0.0037,-0.0014,-0.0022,0.001,0.0006,-0.0059,-0.0066,-0.0071,-0.0067,-0.0107,-0.0108,-0.0109,-0.0127,-0.0127,-0.0126,0,0,0,0,0,0,0.0062,0.0065,0.0076,0.0063,0.0063,0.0036,0.0044,0.0038,0.0028,-0.0013,-0.0023,0.0007,-0.0061,-0.0069,-0.0078,-0.0071,-0.0109,-0.0111,-0.0128,-0.0127,-0.0126,-0.0046,0,0,0,0,0,0,0.0061,0.0065,0.0077,0.0065,0.0065,0.0087,0.0046,0.0039,0.0034,0.0027,-0.0019,-0.0029,-0.0063,-0.0075,-0.008,-0.0074,-0.0112,-0.0129,-0.0128,-0.0127,-0.005,-0.0043,-0.0037,0,0,0,0,0,0.006,0.0087,0.0077,0.008,0.0081,0.0088,0.0086,0.0058,0.0036,0.004,0.001,-0.0027,-0.0073,-0.0075,-0.0081,-0.0076,-0.0129,-0.0128,-0.0127,-0.0052,-0.0044,-0.0037,0,0,0,0,0,0,0.0078,0.0083,0.0072,0.0098,0.0094,0.0078,0.0089,0.0066,0.0048,0.004,-0.0009,-0.0019,-0.0027,-0.0058,-0.006,-0.0079,-0.0111,-0.0111,-0.0053,-0.0045,-0.0039,-0.0047,-0.0114,0,0,0,0,0,0.0091,0.0108,0.0105,0.0123,0.0131,0.0111,0.0111,0.0092,0.0075,0.0064,0.0035,0.0001,-0.0023,-0.0039,-0.006,-0.0061,-0.011,-0.0066,-0.006,-0.0054,-0.0065,-0.0134,-0.0136,-0.0122,-0.0122,-0.0122,0,0,0.0101,0.0107,0.0114,0.0128,0.0126,0.0149,0.0106,0.0115,0.012,0.006,0.0064,0.0029,-0.0017,-0.0023,-0.003,-0.005,-0.0076,-0.0052,-0.0047,-0.0062,-0.0133,-0.0135,-0.0136,-0.0121,-0.0121,-0.0121,0,0,0.0141,0.0141,0.0174,0.018,0.0188,0.0178,0.0184,0.0175,0.0159,0.0164,0.0115,0.0086,0.0063,0.0022,-0.0,0.003,-0.0035,0.0022,0.0043,-0.0022,-0.0025,-0.0027,-0.0059,-0.0065,0.002,0.002,0.002,0,0.0152,0.0193,0.0183,0.0219,0.0226,0.0197,0.0229,0.022,0.0204,0.0186,0.0174,0.011,0.0081,0.0044,0.0052,0.0044,0.0001,0.0021,-0.0015,-0.0019,-0.0023,-0.0055,-0.0063,0.0024,0.0024,0.0023,0.0023,0,0.0216,0.0249,0.0273,0.0304,0.0309,0.0333,0.0321,0.0316,0.0294,0.0269,0.0233,0.0188,0.0135,0.0129,0.0102,0.0057,0.0037,0.0007,-0.0034,-0.002,-0.0054,-0.0063,0.003,0.0028,0.0027,0.0026,0,0,0.0241,0.0305,0.0314,0.0334,0.0354,0.0359,0.0375,0.0365,0.0351,0.0325,0.029,0.0256,0.0204,0.0173,0.0126,0.0073,0.003,0.003,0.0025,0.0,-0.01,-0.009,-0.01,-0.0016,-0.0018,-0.0019,-0.0101,0,0.0293,0.0374,0.0386,0.044,0.0475,0.0449,0.046,0.0436,0.0405,0.0366,0.0295,0.0255,0.0229,0.0193,0.0138,0.0047,0.0002,0.0055,-0.0113,-0.0118,-0.0111,-0.0113,-0.0026,-0.0108,-0.0111,-0.0112,-0.0114,0,0.0357,0.0396,0.0468,0.0496,0.0506,0.0526,0.0503,0.0509,0.0448,0.0415,0.0349,0.0285,0.0206,0.0177,0.0035,0.0067,-0.0009,-0.0073,-0.0079,-0.0113,-0.0128,-0.0136,-0.0132,-0.0131,-0.0129,-0.0128,-0.0127,0,0.0374,0.0449,0.0502,0.0516,0.0547,0.0553,0.0557,0.052,0.0511,0.0434,0.0401,0.0295,0.0238,0.012,0.0005,0.0005,-0.0155,-0.0173,-0.023,-0.0229,-0.0249,-0.0246,-0.0279,-0.0279,-0.0279,-0.0279,-0.0278,0,0.0423,0.0459,0.0515,0.0539,0.0569,0.058,0.059,0.0567,0.0535,0.0516,0.0425,0.0376,0.0215,0.0108,-0.0001,-0.0138,-0.016,-0.0232,-0.026,-0.0207,-0.0199,-0.0254,-0.025,-0.0282,-0.0281,-0.028,-0.028,0,0.0423,0.048,0.0524,0.0567,0.0584,0.0594,0.0623,0.0625,0.0596,0.0563,0.0538,0.0423,0.0284,0.0136,-0.0055,-0.0132,-0.0272,-0.0313,-0.0222,-0.0241,-0.0298,-0.0289,-0.0394,-0.0394,-0.0395,-0.0395,-0.0396,0,0.0426,0.0458,0.0524,0.0555,0.0577,0.061,0.0638,0.0645,0.0648,0.0595,0.0572,0.0443,0.035,0.0105,-0.0053,-0.0263,-0.029,-0.0351,-0.0347,-0.0299,-0.0315,-0.0305,-0.0295,-0.0396,-0.0396,-0.0397,-0.0397,0,0.0397,0.0427,0.0464,0.0542,0.0589,0.0631,0.0672,0.068,0.0683,0.0661,0.0588,0.0455,0.03,0.0109,-0.0051,-0.0201,-0.0311,-0.0356,-0.0357,-0.0354,-0.0303,-0.0317,-0.0307,-0.0398,-0.0398,-0.0398,-0.0398,0,0.0357,0.0378,0.0454,0.0516,0.0582,0.0638,0.0659,0.0678,0.0687,0.0641,0.062,0.0457,0.0365,0.0141,-0.0008,-0.0156,-0.0197,-0.0238,-0.0245,-0.0245,-0.018,-0.0092,-0.0153,0,0,0,0,0,0.0318,0.037,0.0425,0.0508,0.0575,0.062,0.0679,0.07,0.0712,0.0668,0.0648,0.0507,0.0278,0.0176,0.0028,-0.003,-0.023,-0.0209,-0.0282,-0.0408,-0.0406,-0.0354,0,0,0,0,0,0,0.0302,0.0364,0.042,0.05,0.0548,0.0625,0.0665,0.0674,0.0653,0.064,0.0521,0.047,0.0245,0.0356,0.0021,-0.0024,-0.0089,-0.0315,-0.0318,-0.0409,-0.0407,-0.0405,-0.0352,0,0,0,0,0]}]]